Stanley, ND

3:14 PM CDT on August 30, 2016 (GMT -0500)
Stanley

Weather History for K08D - June, 2013

Change the Weather History Date:

Friday, June 21, 2013

  Actual Average (KMOT) Record (KMOT)
Temperature  
Mean Temperature 62 °F 66 °F  
Max Temperature 71 °F 77 °F 103 °F (1910)
Min Temperature 53 °F 54 °F 28 °F (1917)
Degree Days  
Heating Degree Days 3    
Cooling Degree Days 0 3  
Month to date cooling degree days 42  
Year to date cooling degree days 58  
Since 1 June cooling degree days 42  
Growing Degree Days 12 (Base 50)    
Moisture  
Dew Point 61 °F    
Average Humidity 94    
Maximum Humidity 100    
Minimum Humidity 64    
Precipitation  
Precipitation 0.00 in 0.12 in 2.20 in (1947)
Month to date precipitation 2.54  
Year to date precipitation 7.93  
Sea Level Pressure  
Sea Level Pressure 29.98 in    
Wind  
Wind Speed 5 mph (NE)    
Max Wind Speed 16 mph    
Max Gust Speed 24 mph    
Visibility 7 miles    
Events Fog    
T = Trace of Precipitation, MM = Missing Value Source: NWS Daily Summary

Daily Weather History Graph

Daily Weather History Graph

Search for Another Location

Airport or City:

Trip Planner

Search our weather history database for the weather conditions in past years. The results will help you decide how hot, cold, wet, or windy it might be!

Date:

Astronomy

Jun. 21, 2013 Rise Set
Actual Time 5:48 AM CDT 9:54 PM CDT
Civil Twilight 5:06 AM CDT 10:36 PM CDT
Nautical Twilight 4:08 AM CDT 11:34 PM CDT
Astronomical Twilight 2:18 AM CDT 1:23 AM CDT
Moon 8:01 PM CDT (6/21) 4:13 AM CDT (6/21)
Length of Visible Light 17h 29m
Length of Day
16h 05m
Waxing Gibbous, 95% of the Moon is Illuminated
Jun 21
Waxing Gibbous
Jun 23
Full
Jun 29
Last Quarter
Jul 8
New
Jul 15
First Quarter

Hourly Weather History & Observations

Time (CDT) Temp. Dew Point Humidity Pressure Visibility Wind Dir Wind Speed Gust Speed Precip Events Conditions
12:15 AM 59.0 °F 59.0 °F 100% 29.95 in 10.0 mi North 5.8 mph - N/A   Clear
12:35 AM 59.0 °F 59.0 °F 100% 29.94 in 10.0 mi North 3.5 mph - N/A   Clear
12:55 AM 59.0 °F 59.0 °F 100% 29.95 in 10.0 mi NNW 5.8 mph - N/A   Clear
1:15 AM 59.0 °F 59.0 °F 100% 29.95 in 10.0 mi Calm Calm - N/A   Clear
1:35 AM 57.2 °F 57.2 °F 100% 29.94 in 10.0 mi Calm Calm - N/A   Clear
1:55 AM 57.2 °F 57.2 °F 100% 29.93 in 9.0 mi North 3.5 mph - N/A   Clear
2:15 AM 57.2 °F 57.2 °F 100% 29.94 in 10.0 mi East 3.5 mph - N/A   Clear
2:35 AM 55.4 °F 55.4 °F 100% 29.94 in 2.5 mi Calm Calm - N/A   Clear
2:55 AM 55.4 °F 55.4 °F 100% 29.93 in 1.5 mi Calm Calm - N/A   Clear
3:15 AM 53.6 °F 53.6 °F 100% 29.93 in 0.2 mi Calm Calm - N/A Fog Fog
3:35 AM 55.4 °F 55.4 °F 100% 29.94 in 2.0 mi North 4.6 mph - N/A   Clear
3:55 AM 57.2 °F 57.2 °F 100% 29.95 in 10.0 mi North 3.5 mph - N/A   Scattered Clouds
4:15 AM 55.4 °F 55.4 °F 100% 29.96 in 2.5 mi Calm Calm - N/A   Scattered Clouds
4:35 AM 55.4 °F 55.4 °F 100% 29.97 in 0.8 mi Calm Calm - N/A   Mostly Cloudy
4:55 AM 55.4 °F 55.4 °F 100% 29.97 in 5.0 mi Calm Calm - N/A   Mostly Cloudy
5:15 AM 55.4 °F 55.4 °F 100% 29.97 in 0.5 mi Calm Calm - N/A Fog Fog
5:35 AM 55.4 °F 55.4 °F 100% 29.97 in 0.8 mi NW 3.5 mph - N/A   Mist
5:55 AM 53.6 °F 53.6 °F 100% 29.97 in 0.2 mi NW 3.5 mph - N/A Fog Fog
6:15 AM 55.4 °F 55.4 °F 100% 29.97 in 10.0 mi Calm Calm - N/A   Clear
6:35 AM 55.4 °F 55.4 °F 100% 29.98 in 0.5 mi Calm Calm - N/A Fog Fog
6:55 AM 55.4 °F 55.4 °F 100% 29.97 in 0.2 mi Calm Calm - N/A Fog Fog
7:15 AM 57.2 °F 57.2 °F 100% 29.97 in 0.2 mi ESE 5.8 mph - N/A Fog Fog
7:35 AM 57.2 °F 57.2 °F 100% 29.98 in 0.2 mi East 3.5 mph - N/A Fog Fog
7:55 AM 57.2 °F 57.2 °F 100% 29.98 in 0.2 mi NW 3.5 mph - N/A Fog Fog
8:15 AM 59.0 °F 59.0 °F 100% 29.99 in 0.2 mi Calm Calm - N/A Fog Fog
8:35 AM 59.0 °F 59.0 °F 100% 30.01 in 0.2 mi West 3.5 mph - N/A Fog Fog
8:55 AM 59.0 °F 59.0 °F 100% 30.01 in 0.2 mi Calm Calm - N/A Fog Fog
9:15 AM 59.0 °F 59.0 °F 100% 29.99 in 0.2 mi Calm Calm - N/A Fog Fog
9:35 AM 60.8 °F 60.8 °F 100% 29.99 in 0.2 mi Calm Calm - N/A Fog Fog
9:55 AM 60.8 °F 60.8 °F 100% 30.00 in 0.2 mi Calm Calm - N/A Fog Fog
10:15 AM 62.6 °F 62.6 °F 100% 29.99 in 1.8 mi NNW 5.8 mph - N/A   Overcast
10:35 AM 62.6 °F 62.6 °F 100% 30.01 in 10.0 mi WNW 3.5 mph - N/A   Scattered Clouds
10:55 AM 62.6 °F 62.6 °F 100% 29.99 in 10.0 mi NW 11.5 mph - N/A   Clear
11:15 AM 62.6 °F 62.6 °F 100% 30.01 in 10.0 mi WNW 6.9 mph - N/A   Clear
11:35 AM 62.6 °F 62.6 °F 100% 30.01 in 10.0 mi West 6.9 mph - N/A   Clear
11:55 AM 64.4 °F 64.4 °F 100% 29.99 in 10.0 mi NNW 15.0 mph 20.7 mph N/A   Clear
12:15 PM 64.4 °F 64.4 °F 100% 30.01 in 10.0 mi NW 6.9 mph 19.6 mph N/A   Clear
12:35 PM 64.4 °F 64.4 °F 100% 30.02 in 10.0 mi NNW 3.5 mph - N/A   Clear
12:55 PM 66.2 °F 64.4 °F 94% 30.02 in 10.0 mi ENE 8.1 mph - N/A   Clear
1:15 PM 66.2 °F 64.4 °F 94% 29.98 in 10.0 mi North 15.0 mph - N/A   Clear
1:35 PM 68.0 °F 62.6 °F 83% 30.00 in 10.0 mi ENE 16.1 mph 20.7 mph N/A   Clear
1:55 PM 68.0 °F 66.2 °F 94% 29.99 in 10.0 mi ENE 10.4 mph 24.2 mph N/A   Clear
2:15 PM 68.0 °F 62.6 °F 83% 30.00 in 10.0 mi NE 10.4 mph 17.3 mph N/A   Clear
2:35 PM 68.0 °F 64.4 °F 88% 30.01 in 10.0 mi ENE 9.2 mph - N/A   Clear
2:55 PM 68.0 °F 64.4 °F 88% 30.01 in 10.0 mi ENE 8.1 mph - N/A   Clear
3:15 PM 68.0 °F 66.2 °F 94% 30.03 in 10.0 mi East 11.5 mph 16.1 mph N/A   Scattered Clouds
3:35 PM 68.0 °F 66.2 °F 94% 30.03 in 10.0 mi East 10.4 mph 16.1 mph N/A   Mostly Cloudy
3:55 PM 68.0 °F 64.4 °F 88% 30.02 in 10.0 mi ENE 9.2 mph - N/A   Mostly Cloudy
4:15 PM 68.0 °F 62.6 °F 83% 30.01 in 10.0 mi ENE 8.1 mph - N/A   Mostly Cloudy
4:35 PM 69.8 °F 59.0 °F 68% 30.01 in 10.0 mi ENE 9.2 mph - N/A   Partly Cloudy
4:55 PM 71.6 °F 62.6 °F 73% 30.00 in 10.0 mi ENE 9.2 mph 18.4 mph N/A   Clear
5:15 PM 71.6 °F 64.4 °F 78% 30.00 in 10.0 mi NE 10.4 mph 18.4 mph N/A   Partly Cloudy
5:35 PM 69.8 °F 68.0 °F 94% 29.98 in 10.0 mi ENE 9.2 mph 16.1 mph N/A   Scattered Clouds
5:55 PM 71.6 °F 68.0 °F 88% 29.98 in 10.0 mi ENE 12.7 mph 19.6 mph N/A   Scattered Clouds
6:15 PM 71.6 °F 66.2 °F 83% 29.97 in 10.0 mi NNE 10.4 mph 16.1 mph N/A   Clear
6:35 PM 71.6 °F 66.2 °F 83% 29.98 in 10.0 mi ENE 12.7 mph 18.4 mph N/A   Clear
6:55 PM 71.6 °F 66.2 °F 83% 29.98 in 10.0 mi ENE 9.2 mph 18.4 mph N/A   Partly Cloudy
7:15 PM 71.6 °F 62.6 °F 73% 29.98 in 10.0 mi NE 13.8 mph 21.9 mph N/A   Mostly Cloudy
7:35 PM 71.6 °F 59.0 °F 64% 29.98 in 10.0 mi East 12.7 mph 18.4 mph N/A   Scattered Clouds
7:55 PM 69.8 °F 57.2 °F 64% 29.98 in 10.0 mi ENE 8.1 mph - N/A   Mostly Cloudy
8:15 PM 69.8 °F 62.6 °F 78% 29.98 in 10.0 mi East 8.1 mph - N/A   Scattered Clouds
8:35 PM 68.0 °F 64.4 °F 88% 29.98 in 10.0 mi ENE 4.6 mph - N/A   Mostly Cloudy
8:55 PM 68.0 °F 64.4 °F 88% 29.98 in 10.0 mi East 5.8 mph - N/A   Overcast
9:15 PM 68.0 °F 66.2 °F 94% 29.98 in 10.0 mi East 5.8 mph - N/A   Overcast
9:35 PM 66.2 °F 66.2 °F 100% 29.98 in 10.0 mi ENE 5.8 mph - N/A   Overcast
9:55 PM 66.2 °F 66.2 °F 100% 29.97 in 10.0 mi ENE 6.9 mph - N/A   Mostly Cloudy
10:15 PM 66.2 °F 66.2 °F 100% 29.97 in 10.0 mi NE 5.8 mph - N/A   Mostly Cloudy
10:35 PM 66.2 °F 66.2 °F 100% 29.99 in 10.0 mi ENE 5.8 mph - N/A   Overcast
10:55 PM 66.2 °F 66.2 °F 100% 29.98 in 10.0 mi NE 4.6 mph - N/A   Overcast
11:15 PM 64.4 °F 64.4 °F 100% 29.99 in 10.0 mi NE 5.8 mph - N/A   Overcast
11:35 PM 64.4 °F 64.4 °F 100% 29.98 in 10.0 mi NE 6.9 mph - N/A   Overcast
11:55 PM 64.4 °F 64.4 °F 100% 29.97 in 10.0 mi ENE 5.8 mph - N/A   Overcast